Flag Weather past 2 weeks in Jaipur, Rajasthan, India

Now
55 °F

Clear.


Feels Like: 55 °F
Forecast: 58 / 81 °F
Wind: No wind

Location: Jaipur / Sanganer

Current Time: Nov 25, 2014 at 7:48:51 AM

Latest Report: Nov 25, 2014 at 7:00 AM


Visibility: 2 mi

Pressure: 30.07 "Hg

Humidity: 51%

Dew point: 37 °F

Location of JaipurLocation

Historic Weather in Jaipur — Graph

°F

Jaipur temperature yesterday

Maximum temperature yesterday: 82 °F (at 3:00 PM)
Minimum temperature yesterday: 57 °F (at 6:00 AM)
Average temperature yesterday: 68 °F

Past Weeks' High & Low Weather Summary

 TemperatureHumidityPressure
High86 °F (Nov 10, 2:00 PM)64% (Nov 11, 5:30 AM)30.15 "Hg (Nov 11, 5:30 AM)
Low54 °F (Nov 16, 5:30 AM)8% (Nov 15, 4:00 PM)29.89 "Hg (Nov 22, 3:00 PM)
Average71 °F35%30.03 "Hg
* Reported Nov 10 6:00 AM — Nov 25 6:00 AM, Jaipur, Weather by CustomWeather, © 2014

Note: Actual official high and low records may vary slightly from our data, if they occured in-between our weather recording intervals... More about our weather records

Advertising

Jaipur weather history for previous 24 hours

 ConditionsComfort  
Time TempWeatherWind HumidityBarometerVisibility
6:00 AM
Nov 25
57 °FClear.No wind44%30.04 "Hg2 mi
5:00 AM59 °FClear.3 mph42%30.04 "Hg2 mi
4:00 AM57 °FClear.3 mph44%30.01 "Hg2 mi
3:00 AM59 °FClear.5 mph42%30.01 "Hg1 mi
2:00 AM59 °FClear.3 mph42%30.04 "Hg1 mi
12:00 AM64 °FClear.No wind37%30.04 "Hg1 mi
11:00 PM
Nov 24
68 °FClear.6 mph33%30.07 "Hg1 mi
10:00 PM68 °FClear.6 mph35%30.07 "Hg1 mi
9:00 PM68 °FClear.5 mph33%30.04 "Hg1 mi
8:00 PM70 °FClear.No wind33%30.04 "Hg1 mi
7:00 PM72 °FClear.No wind36%30.01 "Hg1 mi
6:00 PM75 °FClear.No wind27%30.01 "Hg1 mi
5:00 PM79 °FClear.No wind21%29.98 "Hg1 mi
4:00 PM81 °FClear.5 mph18%29.98 "Hg1 mi
3:00 PM82 °FClear.6 mph17%29.98 "Hg1 mi
12:00 PM79 °FClear.3 mph21%30.07 "Hg1 mi
11:00 AM77 °FClear.7 mph22%30.09 "Hg1 mi
7:30 AM57 °FClear.No wind51%30.04 "Hg1 mi
7:00 AM57 °FPassing clouds.No wind51%30.04 "Hg1 mi
Weather by CustomWeather, © 2014

See weather overviewHow to use our weather pages